{"data":{"norad_id":43815,"epoch":"2026-09-18T03:29:55.761792Z","epoch_age_seconds":261751,"freshness":"STALE","line1":"1 43815U 18099BK  26261.14578428  .00002391  00000+0  90503-4 0  9999","line2":"2 43815  97.3726 336.1592 0014416 339.1220  82.4211 15.27835700427922","mean_motion":15.278357,"eccentricity":0.0014416,"inclination_deg":97.3726,"raan_deg":336.1592,"arg_perigee_deg":339.122,"mean_anomaly_deg":82.4211,"bstar":9.0503e-5,"rev_number":42792,"period_min":94.250972143143,"perigee_km":472.39356278065,"apogee_km":492.1735272961,"semimajor_km":6860.4205450384,"source":"CELESTRAK","updated_at":"2026-09-20T09:00:14.410890Z"}}